FW8840 Weather Reports


time (UTC)temp
C
wind
direction
speed
KPH
gust
KPH
rain 1hr
cm
rain 24hr
cm
rain mn
cm
humidity
%
barometer
mb
20260504015543 5 202 8.0 11.3 0.00 0.00 0.00 82 1019.0
20260504014524 5 210 6.4 9.7 0.00 0.00 0.00 82 1019.0
20260504013523 5 202 4.8 6.4 0.00 0.00 0.00 81 1019.0
20260504012523 5 202 6.4 6.4 0.00 0.00 0.00 82 1019.0
20260504011523 5 202 6.4 6.4 0.00 0.00 0.00 82 1018.9
20260504010523 5 202 6.4 6.4 0.00 0.00 0.00 81 1018.8
20260504005523 5 202 6.4 8.0 0.00 0.00 0.00 83 1018.8
20260504004523 5 197 4.8 6.4 0.00 0.00 0.00 83 1018.8
20260504003523 5 202 1.6 6.4 0.00 0.00 0.00 83 1018.8
20260504002523 5 202 6.4 9.7 0.00 0.00 0.00 84 1018.8
20260504001523 5 200 8.0 9.7 0.00 0.00 0.00 84 1018.8
20260504000603 5 202 9.7 11.3 0.00 0.00 0.00 85 1018.9
20260503235523 5 210 9.7 11.3 0.00 0.05 0.00 85 1018.8
20260503234522 5 202 9.7 11.3 0.00 0.05 0.00 86 1018.8
20260503233523 5 202 6.4 8.0 0.00 0.05 0.00 88 1018.8
20260503232542 5 202 4.8 6.4 0.00 0.05 0.00 88 1018.9
20260503231522 6 225 3.2 6.4 0.00 0.05 0.00 87 1018.8
20260503230522 6 225 3.2 6.4 0.00 0.05 0.00 84 1018.8
20260503225522 7 225 0.0 3.2 0.00 0.05 0.00 82 1018.7
20260503224522 7 225 4.8 6.4 0.00 0.05 0.00 81 1018.5
20260503223522 7 202 6.4 9.7 0.00 0.08 0.00 82 1018.4
20260503222522 7 196 9.7 12.9 0.00 0.08 0.00 82 1018.5
20260503221522 7 202 0.0 0.0 0.00 0.08 0.00 83 1018.5
20260503220522 8 90 0.0 0.0 0.00 0.08 0.00 82 1018.5
20260503215542 8 90 0.0 0.0 0.00 0.08 0.00 81 1018.4
20260503214522 8 90 0.0 0.0 0.00 0.08 0.00 81 1018.4
20260503213521 8 90 0.0 0.0 0.00 0.08 0.00 79 1018.4
20260503212521 9 90 0.0 0.0 0.00 0.08 0.00 77 1018.5
20260503211542 10 68 0.0 0.0 0.00 0.08 0.00 73 1018.5
20260503210521 10 68 0.0 0.0 0.00 0.08 0.00 69 1018.5
20260503205522 11 68 0.0 0.0 0.00 0.08 0.08 66 1018.5
20260503204522 11 102 4.8 6.4 0.00 0.08 0.08 64 1018.6
20260503203522 11 102 4.8 8.0 0.00 0.08 0.08 67 1018.5
20260503202543 10 114 8.0 16.1 0.00 0.08 0.08 70 1018.5
20260503201521 10 130 3.2 6.4 0.00 0.08 0.08 71 1018.5
20260503200541 9 150 6.4 11.3 0.00 0.08 0.08 72 1018.5
20260503195521 9 155 6.4 8.0 0.00 0.08 0.08 77 1018.5
20260503194521 10 202 1.6 3.2 0.00 0.08 0.08 75 1018.6
20260503193521 10 135 1.6 6.4 0.00 0.08 0.08 69 1018.5
20260503192520 10 102 3.2 11.3 0.00 0.08 0.08 68 1018.4
20260503191520 10 129 1.6 8.0 0.00 0.08 0.08 72 1018.4
20260503190521 10 155 3.2 6.4 0.00 0.08 0.08 73 1018.4
20260503185521 11 198 3.2 9.7 0.00 0.08 0.08 71 1018.1
20260503184520 11 220 6.4 6.4 0.00 0.08 0.08 70 1018.1
20260503183520 11 195 4.8 6.4 0.00 0.08 0.08 69 1017.9
20260503182540 11 202 6.4 8.0 0.00 0.08 0.08 67 1017.8
20260503181520 11 180 3.2 6.4 0.00 0.08 0.08 66 1017.6
20260503180520 11 149 4.8 9.7 0.00 0.08 0.08 68 1017.6
20260503175520 11 173 6.4 8.0 0.00 0.08 0.08 66 1017.4
20260503174520 12 200 4.8 9.7 0.00 0.08 0.08 63 1017.4
20260503173520 12 221 3.2 8.0 0.00 0.08 0.08 59 1017.1
20260503172519 13 237 3.2 6.4 0.00 0.08 0.08 58 1017.1
20260503171551 13 248 3.2 6.4 0.00 0.08 0.08 56 1017.0
20260503170519 15 270 0.0 0.0 0.00 0.08 0.08 54 1016.8
20260503150539 17 342 1.6 8.0 0.00 0.08 0.08 35 1016.7
20260503130530 19 328 3.2 11.3 0.00 0.08 0.08 32 1017.5
20260503110530 17 294 8.0 14.5 0.00 0.08 0.08 41 1018.2
20260503081528 15 37 1.6 4.8 0.00 0.08 0.08 44 1018.9
20260503080528 13 68 0.0 0.0 0.00 0.08 0.08 43 1018.8
20260503072528 13 71 8.0 16.1 0.00 0.08 0.08 48 1018.7
20260503071527 12 39 3.2 8.0 0.00 0.08 0.08 61 1018.7
20260503070547 12 50 6.4 14.5 0.00 0.08 0.08 58 1018.7
20260503054527 10 292 1.6 6.4 0.00 0.08 0.08 79 1018.4
20260503053527 10 292 3.2 6.4 0.00 0.08 0.08 80 1018.3
20260503052528 9 22 0.0 0.0 0.00 0.08 0.08 82 1018.1
20260503051527 9 22 0.0 1.6 0.00 0.08 0.08 84 1018.0
20260503050547 9 22 1.6 3.2 0.00 0.08 0.08 86 1017.8
20260503045526 8 22 1.6 6.4 0.00 0.08 0.08 86 1017.9
20260503044527 8 22 1.6 3.2 0.00 0.08 0.08 87 1017.8
20260503043526 8 22 1.6 3.2 0.00 0.08 0.08 85 1017.7
20260503042526 8 310 3.2 9.7 0.00 0.08 0.08 81 1017.6
20260503041526 8 17 3.2 11.3 0.00 0.08 0.08 86 1017.7
20260503040547 7 37 3.2 6.4 0.00 0.08 0.08 92 1017.5
20260503035526 6 202 6.4 6.4 0.00 0.08 0.08 93 1017.2
20260503034526 6 202 6.4 8.0 0.00 0.08 0.08 93 1017.2
20260503033526 6 202 4.8 6.4 0.00 0.08 0.08 92 1017.1
20260503032526 6 202 3.2 6.4 0.00 0.08 0.08 93 1017.1
20260503031526 6 202 6.4 6.4 0.00 0.08 0.08 93 1017.1
20260503030526 6 196 6.4 9.7 0.00 0.08 0.08 93 1017.3
20260503025526 6 180 6.4 6.4 0.00 0.08 0.08 93 1017.4
20260503024546 6 248 3.2 6.4 0.00 0.08 0.08 93 1017.6
20260503023526 6 68 0.0 1.6 0.00 0.08 0.08 93 1017.5
20260503022526 6 68 1.6 3.2 0.00 0.08 0.08 93 1017.4
20260503021525 6 91 3.2 6.4 0.00 0.08 0.08 93 1017.3
20260503020526 6 180 0.0 0.0 0.00 0.08 0.08 93 1017.1